Regional Weather Roundup
Issued by NWS Mt. Holly, NJ

Home | Current Version | Previous Version | Text Only | Print | Product List | Glossary On
Versions: 1 2 3 4 5 6 7 8 9 10 11 12 13 14 15 16 17 18 19 20 21 22 23 24 25 26 27 28 29 30 31 32 33 34 35 36 37 38 39 40 41 42 43 44 45 46 47 48 49 50
000
ASUS41 KPHI 031911
RWRPHI

REGIONAL WEATHER ROUNDUP
NATIONAL WEATHER SERVICE MOUNT HOLLY NJ
300 PM EDT SUN MAY 03 2015

NOTE:  "FAIR" INDICATES FEW OR NO CLOUDS BELOW 12,000 FEET WITH NO
SIGNIFICANT WEATHER AND/OR OBSTRUCTIONS TO VISIBILITY.

 * = STATION DOES NOT REPORT PRECIPITATION (E.G. RAIN, SNOW, ETC.)
        OR FOG.

NJZ015>026-032000-
SOUTHERN NEW JERSEY

CITY           SKY/WX    TMP DP  RH WIND       PRES   REMARKS
POMONA         SUNNY     72  47  40 S9        30.10S
RIO GRANDE*    SUNNY     73  46  38 SE8         N/A
MILLVILLE      MOSUNNY   77  49  37 W9        30.09S
WRIGHTSTOWN    SUNNY     77  40  26 VRB1      30.06F
MOUNT HOLLY    SUNNY     77  38  24 VRB5      30.08F
TRENTON        MOSUNNY   78  38  23 VRB7      30.07F

$$
NJZ001>014-032000-
NORTHERN NEW JERSEY

CITY           SKY/WX    TMP DP  RH WIND       PRES   REMARKS
SUSSEX         MOSUNNY   76  34  21 VRB3      30.06F
ANDOVER*         N/A     76  35  22 CALM      30.06F
MORRISTOWN     MOSUNNY   79  36  21 NW3G18    30.06F
NEWARK         MOSUNNY   78  37  22 SE8       30.06F
TETERBORO      MOSUNNY   77  37  23 S13       30.04F
CALDWELL       PTSUNNY   77  36  22 S3        30.06S
SOMERVILLE     SUNNY     78  34  20 CALM      30.04F
ALLAIRE*       SUNNY     72  43  35 E12       30.09S
TOMS RIVER*    SUNNY     73  39  29 SE9G17    30.09S

$$
PAZ043-044-047-054-055-060>062-066>071-032000-
EASTERN PENNSYLVANIA

CITY           SKY/WX    TMP DP  RH WIND       PRES   REMARKS
PHILADELPHIA   MOSUNNY   79  37  22 S7        30.08F
NORTH PHILA    SUNNY     77  36  22 N8        30.09F
BLUE BELL      SUNNY     79  37  22 NW6       30.08S
DOYLESTOWN     SUNNY     77  33  20 NW8       30.07F
QUAKERTOWN*    SUNNY     77  39  25 W8        30.09S
POTTSTOWN      SUNNY     76  36  23 VRB3      30.09F
LANCASTER      SUNNY     78  39  24 W9        30.08F
COATESVILLE    SUNNY     75  43  31 NW9       30.11F
READING        MOSUNNY   79  34  19 N7        30.06F
ALLENTOWN      MOSUNNY   80  40  23 SW12      30.06F
MOUNT POCONO   SUNNY     73  30  20 NW12      30.09F
HAZLETON       SUNNY     73  30  20 NW9       30.13F
WILKES BARRE   MOSUNNY   77  34  21 CALM      30.07F

$$
DEZALL-MDZ008-012-015-019-020-032000-
DELAWARE AND EASTERN MARYLAND

CITY           SKY/WX    TMP DP  RH WIND       PRES   REMARKS
WILMINGTON     PTSUNNY   80  38  22 VRB5      30.09F
DOVER          SUNNY     74  49  39 E8        30.07F
GEORGETOWN     SUNNY     78  41  26 E12G29    30.10F
EASTON         MOSUNNY   81  43  26 NW7       30.14F
PATUXENT       MOSUNNY   75  44  33 S7        30.12S
OCEAN CITY     SUNNY     63  51  65 SE7       30.12S
WALLOPS ISLAND SUNNY     78  45  30 W8G23     30.11S
CAMBRIDGE      SUNNY     79  37  22 N9        30.11S
SALISBURY      MOSUNNY   79  40  24 N7        30.10S

$$
PAZ001-021-NYZ056-072-MDZ011-DCZ001-032000-
OTHER NEARBY LOCATIONS

CITY           SKY/WX    TMP DP  RH WIND       PRES   REMARKS
HARRISBURG     MOSUNNY   79  38  22 CALM      30.07F
STATE COLLEGE  PTSUNNY   75  43  31 CALM      30.10S
WILLIAMSPORT   MOSUNNY   79  33  19 W8        30.05F
BINGHAMTON     MOSUNNY   73  34  23 W6        30.07F
NEW YORK CITY  SUNNY     78  39  24 VRB6      30.09S
BALTIMORE      MOSUNNY   79  42  26 W8        30.08F
WASHINGTON DC  MOSUNNY   84  41  21 CALM      30.10F

$$


USA.gov is the U.S. government's official web portal to all federal, state and local government web resources and services.